Year,Month,Day,Hour,Minute,Value (Times are PST for temperature in C)
2017,09,30,13,20,13.30
2017,09,30,13,21,13.30
2017,09,30,13,22,13.40
2017,09,30,13,23,13.40
2017,09,30,13,24,13.40
2017,09,30,13,25,13.50
2017,09,30,13,26,13.50
2017,09,30,13,27,13.50
2017,09,30,13,28,13.60
2017,09,30,13,29,13.60
2017,09,30,13,30,13.60
2017,09,30,13,31,13.50
2017,09,30,13,32,13.50
2017,09,30,13,33,13.50
2017,09,30,13,34,13.40
2017,09,30,13,35,13.40
2017,09,30,13,36,13.50
2017,09,30,13,37,13.50
2017,09,30,13,38,13.60
2017,09,30,13,39,13.60
2017,09,30,13,40,13.60
2017,09,30,13,41,13.60
2017,09,30,13,42,13.60
2017,09,30,13,43,13.60
2017,09,30,13,44,13.60
2017,09,30,13,45,13.60
2017,09,30,13,46,13.60
2017,09,30,13,47,13.60
2017,09,30,13,48,13.60
2017,09,30,13,49,13.70
2017,09,30,13,50,13.70
2017,09,30,13,51,13.70
2017,09,30,13,52,13.70
2017,09,30,13,53,13.70
2017,09,30,13,54,13.70
2017,09,30,13,55,13.70
2017,09,30,13,56,13.60
2017,09,30,13,57,13.60
2017,09,30,13,58,13.60
2017,09,30,13,59,13.50
2017,09,30,14,00,13.50
2017,09,30,14,01,13.50
2017,09,30,14,02,13.50
2017,09,30,14,03,13.60
2017,09,30,14,04,13.60
2017,09,30,14,05,13.60
2017,09,30,14,06,13.60
2017,09,30,14,07,13.60
2017,09,30,14,08,13.60
2017,09,30,14,09,13.60
2017,09,30,14,10,13.60
2017,09,30,14,11,13.60
2017,09,30,14,12,13.60
2017,09,30,14,13,13.60
2017,09,30,14,14,13.70
2017,09,30,14,15,13.70
2017,09,30,14,16,13.70
2017,09,30,14,17,13.70
2017,09,30,14,18,13.80
2017,09,30,14,19,13.80
2017,09,30,14,20,13.80
2017,09,30,14,21,13.90
2017,09,30,14,22,13.90
2017,09,30,14,23,13.90
2017,09,30,14,24,13.90
2017,09,30,14,25,13.90
2017,09,30,14,26,13.90
2017,09,30,14,27,13.90
2017,09,30,14,28,13.90
2017,09,30,14,29,13.90
2017,09,30,14,30,13.90
2017,09,30,14,31,13.90
2017,09,30,14,32,13.90
2017,09,30,14,33,13.90
2017,09,30,14,34,13.90
2017,09,30,14,35,13.90
2017,09,30,14,36,13.90
2017,09,30,14,37,13.90
2017,09,30,14,38,13.90
2017,09,30,14,39,13.90
2017,09,30,14,40,13.90
2017,09,30,14,41,13.90
2017,09,30,14,42,13.90
2017,09,30,14,43,13.90
2017,09,30,14,44,14.00
2017,09,30,14,45,14.00
2017,09,30,14,46,14.10
2017,09,30,14,47,14.10
2017,09,30,14,48,14.10
2017,09,30,14,49,14.10
2017,09,30,14,50,14.10
2017,09,30,14,51,14.10
2017,09,30,14,52,14.10
2017,09,30,14,53,14.10
2017,09,30,14,54,14.20
2017,09,30,14,55,14.20
2017,09,30,14,56,14.30
2017,09,30,14,57,14.30
2017,09,30,14,58,14.30
2017,09,30,14,59,14.30
2017,09,30,15,00,14.30
2017,09,30,15,01,14.30
2017,09,30,15,02,14.30
2017,09,30,15,03,14.30
2017,09,30,15,04,14.30
2017,09,30,15,05,14.30
2017,09,30,15,06,14.30
2017,09,30,15,07,14.30
2017,09,30,15,08,14.30
2017,09,30,15,09,14.30
2017,09,30,15,10,14.30
2017,09,30,15,11,14.30
2017,09,30,15,12,14.30
2017,09,30,15,13,14.30
2017,09,30,15,14,14.30
2017,09,30,15,15,14.30
2017,09,30,15,16,14.30
2017,09,30,15,17,14.30
2017,09,30,15,18,14.30
2017,09,30,15,19,14.30
2017,09,30,15,20,14.30
2017,09,30,15,21,14.30
2017,09,30,15,22,14.30
2017,09,30,15,23,14.30
2017,09,30,15,24,14.30
2017,09,30,15,25,14.30
2017,09,30,15,26,14.30
2017,09,30,15,27,14.30
2017,09,30,15,28,14.30
2017,09,30,15,29,14.30
2017,09,30,15,30,14.30
2017,09,30,15,31,14.30
2017,09,30,15,32,14.30
2017,09,30,15,33,14.30
2017,09,30,15,34,14.30
2017,09,30,15,35,14.30
2017,09,30,15,36,14.30
2017,09,30,15,37,14.30
2017,09,30,15,38,14.30
2017,09,30,15,39,14.30
2017,09,30,15,40,14.30
2017,09,30,15,41,14.30
2017,09,30,15,42,14.30
2017,09,30,15,43,14.30
2017,09,30,15,44,14.30
2017,09,30,15,45,14.40
2017,09,30,15,46,14.40
2017,09,30,15,47,14.50
2017,09,30,15,48,14.60
2017,09,30,15,49,14.60
2017,09,30,15,50,14.60
2017,09,30,15,51,14.50
2017,09,30,15,52,14.50
2017,09,30,15,53,14.40
2017,09,30,15,54,14.40
2017,09,30,15,55,14.30
2017,09,30,15,56,14.30
2017,09,30,15,57,14.30
2017,09,30,15,58,14.30
2017,09,30,15,59,14.30
2017,09,30,16,00,14.30
2017,09,30,16,01,14.30
2017,09,30,16,02,14.30
2017,09,30,16,03,14.40
2017,09,30,16,04,14.40
2017,09,30,16,05,14.50
2017,09,30,16,06,14.50
2017,09,30,16,07,14.60
2017,09,30,16,08,14.60
2017,09,30,16,09,14.70
2017,09,30,16,10,14.70
2017,09,30,16,11,14.70
2017,09,30,16,12,14.70
2017,09,30,16,13,14.70
2017,09,30,16,14,14.70
2017,09,30,16,15,14.60
2017,09,30,16,16,14.60
2017,09,30,16,17,14.60
2017,09,30,16,18,14.60
2017,09,30,16,19,14.50
2017,09,30,16,20,14.40
2017,09,30,16,21,14.40
2017,09,30,16,22,14.30
2017,09,30,16,23,14.30
2017,09,30,16,24,14.30
2017,09,30,16,25,14.30
2017,09,30,16,26,14.30
2017,09,30,16,27,14.30
2017,09,30,16,28,14.30
2017,09,30,16,29,14.30
2017,09,30,16,30,14.30
2017,09,30,16,31,14.30
2017,09,30,16,32,14.40
2017,09,30,16,33,14.40
2017,09,30,16,34,14.40
2017,09,30,16,35,14.40
2017,09,30,16,36,14.30
2017,09,30,16,37,14.30
2017,09,30,16,38,14.30
2017,09,30,16,39,14.30
2017,09,30,16,40,14.30
2017,09,30,16,41,14.30
2017,09,30,16,42,14.30
2017,09,30,16,43,14.40
2017,09,30,16,44,14.40
2017,09,30,16,45,14.50
2017,09,30,16,46,14.50
2017,09,30,16,47,14.60
2017,09,30,16,48,14.60
2017,09,30,16,49,14.60
2017,09,30,16,50,14.60
2017,09,30,16,51,14.60
2017,09,30,16,52,14.60
2017,09,30,16,53,14.60
2017,09,30,16,54,14.70
2017,09,30,16,55,14.70
2017,09,30,16,56,14.60
2017,09,30,16,57,14.60
2017,09,30,16,58,14.60
2017,09,30,16,59,14.50
2017,09,30,17,00,14.40
2017,09,30,17,01,14.40
2017,09,30,17,02,14.30
2017,09,30,17,03,14.30
2017,09,30,17,04,14.30
2017,09,30,17,05,14.30
2017,09,30,17,06,14.30
2017,09,30,17,07,14.30
2017,09,30,17,08,14.30
2017,09,30,17,09,14.30
2017,09,30,17,10,14.30
2017,09,30,17,11,14.30
2017,09,30,17,12,14.20
2017,09,30,17,13,14.20
2017,09,30,17,14,14.20
2017,09,30,17,15,14.30
2017,09,30,17,16,14.30
2017,09,30,17,17,14.30
2017,09,30,17,18,14.40
2017,09,30,17,19,14.40
2017,09,30,17,20,14.40
2017,09,30,17,21,14.40
2017,09,30,17,22,14.30
2017,09,30,17,23,14.30
2017,09,30,17,24,14.30
2017,09,30,17,25,14.30
2017,09,30,17,26,14.30
2017,09,30,17,27,14.20
2017,09,30,17,28,14.20
2017,09,30,17,29,14.20
2017,09,30,17,30,14.10
2017,09,30,17,31,14.10
2017,09,30,17,32,14.10
2017,09,30,17,33,14.10
2017,09,30,17,34,14.10
2017,09,30,17,35,14.20
2017,09,30,17,36,14.20
2017,09,30,17,37,14.20
2017,09,30,17,38,14.20
2017,09,30,17,39,14.20
2017,09,30,17,40,14.20
2017,09,30,17,41,14.20
2017,09,30,17,42,14.20
2017,09,30,17,43,14.20
2017,09,30,17,44,14.20
2017,09,30,17,45,14.20
2017,09,30,17,46,14.20
2017,09,30,17,47,14.20
2017,09,30,17,48,14.10
2017,09,30,17,49,14.10
2017,09,30,17,50,14.20
2017,09,30,17,51,14.20
2017,09,30,17,52,14.20
2017,09,30,17,53,14.20
2017,09,30,17,54,14.20
2017,09,30,17,55,14.20
2017,09,30,17,56,14.20
2017,09,30,17,57,14.10
2017,09,30,17,58,14.10
2017,09,30,17,59,14.10
2017,09,30,18,00,14.10
2017,09,30,18,01,14.00
2017,09,30,18,02,14.00
2017,09,30,18,03,14.00
2017,09,30,18,04,14.00
2017,09,30,18,05,13.90
2017,09,30,18,06,13.90
2017,09,30,18,07,13.90
2017,09,30,18,08,13.90
2017,09,30,18,09,13.80
2017,09,30,18,10,13.80
2017,09,30,18,11,13.80
2017,09,30,18,12,13.70
2017,09,30,18,13,13.70
2017,09,30,18,14,13.70
2017,09,30,18,15,13.70
2017,09,30,18,16,13.70
2017,09,30,18,17,13.70
2017,09,30,18,18,13.70
2017,09,30,18,19,13.70
2017,09,30,18,20,13.70
2017,09,30,18,21,13.70
2017,09,30,18,22,13.70
2017,09,30,18,23,13.70
2017,09,30,18,24,13.70
2017,09,30,18,25,13.70
2017,09,30,18,26,13.70
2017,09,30,18,27,13.70
2017,09,30,18,28,13.60
2017,09,30,18,29,13.60
2017,09,30,18,30,13.60
2017,09,30,18,31,13.60
2017,09,30,18,32,13.50
2017,09,30,18,33,13.50
2017,09,30,18,34,13.50
2017,09,30,18,35,13.50
2017,09,30,18,36,13.40
2017,09,30,18,37,13.40
2017,09,30,18,38,13.40
2017,09,30,18,39,13.40
2017,09,30,18,40,13.40
2017,09,30,18,41,13.40
2017,09,30,18,42,13.30
2017,09,30,18,43,13.30
2017,09,30,18,44,13.30
2017,09,30,18,45,13.20
2017,09,30,18,46,13.10
2017,09,30,18,47,13.00
2017,09,30,18,48,13.00
2017,09,30,18,49,12.90
2017,09,30,18,50,12.90
2017,09,30,18,51,12.80
2017,09,30,18,52,12.80
2017,09,30,18,53,12.70
2017,09,30,18,54,12.70
2017,09,30,18,55,12.70
2017,09,30,18,56,12.60
2017,09,30,18,57,12.60
2017,09,30,18,58,12.60
2017,09,30,18,59,12.50
2017,09,30,19,00,12.50
2017,09,30,19,01,12.40
2017,09,30,19,02,12.40
2017,09,30,19,03,12.40
2017,09,30,19,04,12.40
2017,09,30,19,05,12.40
2017,09,30,19,06,12.40
2017,09,30,19,07,12.40
2017,09,30,19,08,12.40
2017,09,30,19,09,12.40
2017,09,30,19,10,12.40
2017,09,30,19,11,12.40
